Location: Quedlinburg
(51.7921°N, 11.1414°E)
Time: 08:42:38
(UTC+02:00)

RS-44 - Pass Details

Date: 24 March 2026
Orbit: 1175 x 1510 km, 82.5° (Epoch: 13 April)

Event Time Altitude Azimuth Distance (km) Brightness Sun altitude
Rises 00:07:53 0° 349° (N) 4,449 ? -36.8°
Reaches altitude 10° 00:11:05 10° 359° (N) 3,518 ? -36.8°
Maximum altitude 00:18:36 33° 61° (ENE) 2,274 ? -36.9°
Enters shadow 00:21:12 28° 91° (E) 2,484 ? -36.9°
